YBCG

Coolangatta/Gold Coast Airport

Airport
ICAO code
YBCG
IATA Code
OOL
Summary
ICAO Region
APAC
ICAO Territory
Location

Coolangatta, Queensland

Serving
Coolangatta
Elevation
21 ft
Coordinates
28° 9' 54" S , 153° 30' 35" E
KCC
Metar
YBCG 252130Z AUTO 21005KT 9999 // NCD 26/23 Q1014 RF00.0/001.0

Serves the city of Coolangatta.

Climatology

Humid “subtropical” climate (Köppen climate classification Cfa) - characterized by hot, humid summers and cool winters. Significant amounts of precipitation occur in all seasons in most areas. Winter rainfall (and sometimes snowfall) is associated with large storms that the westerlies steer from west to east. Most summer rainfall occurs during thunderstorms and occasional tropical storms (hurricanes).

SKYbrary Partners:

Safety knowledge contributed by: